Location: Holyhead Bay
(53.3667°N, 4.6667°W)
Time: 19:53:57
(UTC+00:00)

Cosmos 2333 Rocket - Pass Details

Date: 24 November 2020
Orbit: 841 x 861 km, 70.8° (Epoch: 17 January)

Event Time Altitude Azimuth Distance (km) Brightness Sun altitude
Rises 17:01:44 0° 204° (SSW) 3,402 6.2 -7.5°
Reaches altitude 10° 17:04:11 10° 202° (SSW) 2,468 5.4 -7.8°
Maximum altitude 17:09:50 75° 118° (ESE) 877 2.2 -8.6°
Drops below altitude 10° 17:15:30 10° 34° (NE) 2,473 4.1 -9.4°
Enters shadow 17:16:21 - 34° (NE) 2,795 4.4 -9.5°
